Location: Liberty
(32.6612°N, 88.7589°W)
Time: 09:25:26
(UTC+00:00)

ISS - Visible Passes

Search period start: 09 December 2023 00:00
Search period end: 19 December 2023 00:00
Orbit: 415 x 417 km, 51.6° (Epoch: 09 December)

Date Brightness Start Highest point End Pass type
(mag) Time Alt. Az. Time Alt. Az. Time Alt. Az.
09 Dec -0.5 23:29:34 10° W 23:31:48 17° SW 23:34:02 10° S visible
13 Dec -0.5 12:06:04 10° SSE 12:08:14 16° SE 12:10:25 10° E visible
15 Dec -3.0 12:03:35 10° SSW 12:06:51 57° SE 12:10:08 10° NE visible
16 Dec -1.6 11:15:05 10° S 11:17:57 27° SE 11:20:50 10° ENE visible
17 Dec -0.7 10:28:45 14° SE 10:29:03 14° SE 10:30:53 10° E visible
17 Dec -3.3 12:02:19 10° WSW 12:05:28 39° NW 12:08:38 10° NNE visible
18 Dec -4.0 11:16:17 79° WNW 11:16:20 80° NW 11:19:41 10° NE visible
